JCSAT-16

Last updated on Fri Jul 10 2026 00:03:04 GMT+0000 (Coordinated Universal Time)

1 41729U 16050A 26189.64112823 .00000000 00000+0 00000+0 0 9996 2 41729 0.0264 37.0581 0000860 93.7939 170.4964 1.00268669 36283
UTC large
Height (km)
Speed (km/s)
/
Latitude / Longitude
Inclination (degrees)
Orbital Period (minutes)
Azimuth
Elevation
Range (km)
Doppler Factor

Next 0 passes for location: London (51.5072 / 0.1276)

No passes found over London.